#datetime,building,power
2023-09-05T00:00:00,sdl,5.90
2023-09-05T00:01:00,sdl,5.79
2023-09-05T00:02:00,sdl,5.56
2023-09-05T00:03:00,sdl,5.44
2023-09-05T00:04:00,sdl,5.39
2023-09-05T00:05:00,sdl,5.58
2023-09-05T00:06:00,sdl,5.55
2023-09-05T00:07:00,sdl,5.42
2023-09-05T00:08:00,sdl,5.76
2023-09-05T00:09:00,sdl,6.17
2023-09-05T00:10:00,sdl,6.11
2023-09-05T00:11:00,sdl,6.06
2023-09-05T00:12:00,sdl,6.35
2023-09-05T00:13:00,sdl,6.04
2023-09-05T00:14:00,sdl,5.89
2023-09-05T00:15:00,sdl,6.04
2023-09-05T00:16:00,sdl,3.90
2023-09-05T00:17:00,sdl,3.93
2023-09-05T00:18:00,sdl,3.83
2023-09-05T00:19:00,sdl,3.90
2023-09-05T00:20:00,sdl,3.73
2023-09-05T00:21:00,sdl,4.10
2023-09-05T00:22:00,sdl,3.92
2023-09-05T00:23:00,sdl,3.86
2023-09-05T00:24:00,sdl,3.88
2023-09-05T00:25:00,sdl,3.88
2023-09-05T00:26:00,sdl,4.02
2023-09-05T00:27:00,sdl,3.98
2023-09-05T00:28:00,sdl,4.28
2023-09-05T00:29:00,sdl,4.09
2023-09-05T00:30:00,sdl,4.41
2023-09-05T00:31:00,sdl,4.41
2023-09-05T00:32:00,sdl,3.71
2023-09-05T00:33:00,sdl,4.24
2023-09-05T00:34:00,sdl,4.09
2023-09-05T00:35:00,sdl,4.11
2023-09-05T00:36:00,sdl,4.02
2023-09-05T00:37:00,sdl,4.16
2023-09-05T00:38:00,sdl,4.03
2023-09-05T00:39:00,sdl,4.22
2023-09-05T00:40:00,sdl,4.18
2023-09-05T00:41:00,sdl,4.17
2023-09-05T00:42:00,sdl,4.16
2023-09-05T00:43:00,sdl,4.15
2023-09-05T00:44:00,sdl,4.04
2023-09-05T00:45:00,sdl,4.17
2023-09-05T00:46:00,sdl,4.00
2023-09-05T00:47:00,sdl,4.08
2023-09-05T00:48:00,sdl,3.94
2023-09-05T00:49:00,sdl,6.13
2023-09-05T00:50:00,sdl,6.20
2023-09-05T00:51:00,sdl,6.85
2023-09-05T00:52:00,sdl,6.18
2023-09-05T00:53:00,sdl,6.31
2023-09-05T00:54:00,sdl,6.43
2023-09-05T00:55:00,sdl,6.21
2023-09-05T00:56:00,sdl,6.48
2023-09-05T00:57:00,sdl,6.40
2023-09-05T00:58:00,sdl,6.65
2023-09-05T00:59:00,sdl,6.22
2023-09-05T01:00:00,sdl,6.06
2023-09-05T01:01:00,sdl,6.10
2023-09-05T01:02:00,sdl,3.85
2023-09-05T01:03:00,sdl,3.67
2023-09-05T01:04:00,sdl,3.98
2023-09-05T01:05:00,sdl,4.11
2023-09-05T01:06:00,sdl,4.12
2023-09-05T01:07:00,sdl,4.13
2023-09-05T01:08:00,sdl,4.29
2023-09-05T01:09:00,sdl,3.84
2023-09-05T01:10:00,sdl,3.87
2023-09-05T01:11:00,sdl,4.05
2023-09-05T01:12:00,sdl,4.04
2023-09-05T01:13:00,sdl,4.05
2023-09-05T01:14:00,sdl,4.13
2023-09-05T01:15:00,sdl,4.01
2023-09-05T01:16:00,sdl,3.77
2023-09-05T01:17:00,sdl,6.29
2023-09-05T01:18:00,sdl,6.22
2023-09-05T01:19:00,sdl,6.21
2023-09-05T01:20:00,sdl,6.35
2023-09-05T01:21:00,sdl,6.29
2023-09-05T01:22:00,sdl,6.00
2023-09-05T01:23:00,sdl,6.24
2023-09-05T01:24:00,sdl,6.39
2023-09-05T01:25:00,sdl,6.36
2023-09-05T01:26:00,sdl,6.66
2023-09-05T01:27:00,sdl,6.70
2023-09-05T01:28:00,sdl,6.09
2023-09-05T01:29:00,sdl,6.38
2023-09-05T01:30:00,sdl,6.39
2023-09-05T01:31:00,sdl,6.26
2023-09-05T01:32:00,sdl,4.25
2023-09-05T01:33:00,sdl,3.95
2023-09-05T01:34:00,sdl,3.84
2023-09-05T01:35:00,sdl,3.94
2023-09-05T01:36:00,sdl,3.97
2023-09-05T01:37:00,sdl,3.96
2023-09-05T01:38:00,sdl,3.91
2023-09-05T01:39:00,sdl,3.85
2023-09-05T01:40:00,sdl,3.96
2023-09-05T01:41:00,sdl,3.77
2023-09-05T01:42:00,sdl,3.79
2023-09-05T01:43:00,sdl,3.77
2023-09-05T01:44:00,sdl,3.80
2023-09-05T01:45:00,sdl,3.56
2023-09-05T01:46:00,sdl,3.58
2023-09-05T01:47:00,sdl,3.37
2023-09-05T01:48:00,sdl,3.39
2023-09-05T01:49:00,sdl,3.35
2023-09-05T01:50:00,sdl,3.48
2023-09-05T01:51:00,sdl,3.53
2023-09-05T01:52:00,sdl,3.50
2023-09-05T01:53:00,sdl,3.45
2023-09-05T01:54:00,sdl,3.32
2023-09-05T01:55:00,sdl,3.54
2023-09-05T01:56:00,sdl,3.48
2023-09-05T01:57:00,sdl,4.13
2023-09-05T01:58:00,sdl,3.75
2023-09-05T01:59:00,sdl,3.31
2023-09-05T02:00:00,sdl,3.37
2023-09-05T02:01:00,sdl,7.43
2023-09-05T02:02:00,sdl,7.53
2023-09-05T02:03:00,sdl,7.40
2023-09-05T02:04:00,sdl,7.49
2023-09-05T02:05:00,sdl,12.25
2023-09-05T02:06:00,sdl,12.15
2023-09-05T02:07:00,sdl,12.51
2023-09-05T02:08:00,sdl,12.37
2023-09-05T02:09:00,sdl,12.31
2023-09-05T02:10:00,sdl,12.61
2023-09-05T02:11:00,sdl,13.16
2023-09-05T02:12:00,sdl,13.06
2023-09-05T02:13:00,sdl,13.09
2023-09-05T02:14:00,sdl,13.08
2023-09-05T02:15:00,sdl,13.07
2023-09-05T02:16:00,sdl,13.07
2023-09-05T02:17:00,sdl,11.09
2023-09-05T02:18:00,sdl,11.08
2023-09-05T02:19:00,sdl,11.36
2023-09-05T02:20:00,sdl,11.36
2023-09-05T02:21:00,sdl,11.41
2023-09-05T02:22:00,sdl,11.34
2023-09-05T02:23:00,sdl,11.35
2023-09-05T02:24:00,sdl,11.22
2023-09-05T02:25:00,sdl,11.33
2023-09-05T02:26:00,sdl,11.85
2023-09-05T02:27:00,sdl,11.73
2023-09-05T02:28:00,sdl,11.48
2023-09-05T02:29:00,sdl,11.61
2023-09-05T02:30:00,sdl,11.58
2023-09-05T02:31:00,sdl,11.66
2023-09-05T02:32:00,sdl,11.63
2023-09-05T02:33:00,sdl,11.66
2023-09-05T02:34:00,sdl,13.76
2023-09-05T02:35:00,sdl,13.73
2023-09-05T02:36:00,sdl,13.73
2023-09-05T02:37:00,sdl,14.22
2023-09-05T02:38:00,sdl,13.85
2023-09-05T02:39:00,sdl,13.86
2023-09-05T02:40:00,sdl,13.78
2023-09-05T02:41:00,sdl,13.79
2023-09-05T02:42:00,sdl,13.79
2023-09-05T02:43:00,sdl,13.87
2023-09-05T02:44:00,sdl,13.82
2023-09-05T02:45:00,sdl,11.59
2023-09-05T02:46:00,sdl,11.61
2023-09-05T02:47:00,sdl,11.63
2023-09-05T02:48:00,sdl,11.64
2023-09-05T02:49:00,sdl,11.61
2023-09-05T02:50:00,sdl,11.33
2023-09-05T02:51:00,sdl,11.36
2023-09-05T02:52:00,sdl,11.35
2023-09-05T02:53:00,sdl,11.34
2023-09-05T02:54:00,sdl,11.85
2023-09-05T02:55:00,sdl,11.88
2023-09-05T02:56:00,sdl,11.74
2023-09-05T02:57:00,sdl,11.54
2023-09-05T02:58:00,sdl,11.47
2023-09-05T02:59:00,sdl,11.54
2023-09-05T03:00:00,sdl,11.39
2023-09-05T03:01:00,sdl,11.33
2023-09-05T03:02:00,sdl,11.22
2023-09-05T03:03:00,sdl,11.90
2023-09-05T03:04:00,sdl,11.12
2023-09-05T03:05:00,sdl,11.22
2023-09-05T03:06:00,sdl,11.06
2023-09-05T03:07:00,sdl,13.58
2023-09-05T03:08:00,sdl,13.35
2023-09-05T03:09:00,sdl,13.34
2023-09-05T03:10:00,sdl,13.18
2023-09-05T03:11:00,sdl,13.17
2023-09-05T03:12:00,sdl,13.16
2023-09-05T03:13:00,sdl,12.40
2023-09-05T03:14:00,sdl,12.33
2023-09-05T03:15:00,sdl,12.33
2023-09-05T03:16:00,sdl,12.46
2023-09-05T03:17:00,sdl,12.40
2023-09-05T03:18:00,sdl,12.49
2023-09-05T03:19:00,sdl,13.86
2023-09-05T03:20:00,sdl,13.28
2023-09-05T03:21:00,sdl,13.15
2023-09-05T03:22:00,sdl,13.59
2023-09-05T03:23:00,sdl,13.50
2023-09-05T03:24:00,sdl,13.47
2023-09-05T03:25:00,sdl,13.26
2023-09-05T03:26:00,sdl,13.18
2023-09-05T03:27:00,sdl,11.80
2023-09-05T03:28:00,sdl,10.93
2023-09-05T03:29:00,sdl,10.94
2023-09-05T03:30:00,sdl,11.22
2023-09-05T03:31:00,sdl,11.15
2023-09-05T03:32:00,sdl,11.15
2023-09-05T03:33:00,sdl,11.23
2023-09-05T03:34:00,sdl,11.25
2023-09-05T03:35:00,sdl,11.35
2023-09-05T03:36:00,sdl,11.28
2023-09-05T03:37:00,sdl,11.16
2023-09-05T03:38:00,sdl,10.99
2023-09-05T03:39:00,sdl,11.02
2023-09-05T03:40:00,sdl,11.09
2023-09-05T03:41:00,sdl,11.08
2023-09-05T03:42:00,sdl,11.13
2023-09-05T03:43:00,sdl,11.11
2023-09-05T03:44:00,sdl,11.22
2023-09-05T03:45:00,sdl,11.22
2023-09-05T03:46:00,sdl,11.14
2023-09-05T03:47:00,sdl,11.27
2023-09-05T03:48:00,sdl,11.23
2023-09-05T03:49:00,sdl,10.26
2023-09-05T03:50:00,sdl,10.32
2023-09-05T03:51:00,sdl,10.29
2023-09-05T03:52:00,sdl,12.33
2023-09-05T03:53:00,sdl,12.61
2023-09-05T03:54:00,sdl,12.72
2023-09-05T03:55:00,sdl,13.19
2023-09-05T03:56:00,sdl,13.13
2023-09-05T03:57:00,sdl,13.15
2023-09-05T03:58:00,sdl,13.04
2023-09-05T03:59:00,sdl,13.03
2023-09-05T04:00:00,sdl,13.03
2023-09-05T04:01:00,sdl,13.17
2023-09-05T04:02:00,sdl,13.14
2023-09-05T04:03:00,sdl,10.96
2023-09-05T04:04:00,sdl,10.92
2023-09-05T04:05:00,sdl,11.22
2023-09-05T04:06:00,sdl,10.92
2023-09-05T04:07:00,sdl,10.79
2023-09-05T04:08:00,sdl,10.93
2023-09-05T04:09:00,sdl,10.76
2023-09-05T04:10:00,sdl,10.65
2023-09-05T04:11:00,sdl,10.66
2023-09-05T04:12:00,sdl,10.85
2023-09-05T04:13:00,sdl,10.85
2023-09-05T04:14:00,sdl,11.16
2023-09-05T04:15:00,sdl,10.78
2023-09-05T04:16:00,sdl,10.86
2023-09-05T04:17:00,sdl,11.03
2023-09-05T04:18:00,sdl,10.91
2023-09-05T04:19:00,sdl,13.01
2023-09-05T04:20:00,sdl,12.97
2023-09-05T04:21:00,sdl,13.05
2023-09-05T04:22:00,sdl,12.96
2023-09-05T04:23:00,sdl,13.11
2023-09-05T04:24:00,sdl,12.08
2023-09-05T04:25:00,sdl,12.03
2023-09-05T04:26:00,sdl,12.11
2023-09-05T04:27:00,sdl,12.45
2023-09-05T04:28:00,sdl,12.48
2023-09-05T04:29:00,sdl,13.22
2023-09-05T04:30:00,sdl,12.95
2023-09-05T04:31:00,sdl,12.96
2023-09-05T04:32:00,sdl,13.05
2023-09-05T04:33:00,sdl,13.14
2023-09-05T04:34:00,sdl,12.99
2023-09-05T04:35:00,sdl,12.96
2023-09-05T04:36:00,sdl,13.00
2023-09-05T04:37:00,sdl,10.83
2023-09-05T04:38:00,sdl,10.98
2023-09-05T04:39:00,sdl,10.85
2023-09-05T04:40:00,sdl,10.69
2023-09-05T04:41:00,sdl,11.02
2023-09-05T04:42:00,sdl,11.31
2023-09-05T04:43:00,sdl,11.17
2023-09-05T04:44:00,sdl,11.24
2023-09-05T04:45:00,sdl,11.27
2023-09-05T04:46:00,sdl,11.25
2023-09-05T04:47:00,sdl,10.42
2023-09-05T04:48:00,sdl,10.46
2023-09-05T04:49:00,sdl,10.47
2023-09-05T04:50:00,sdl,10.45
2023-09-05T04:51:00,sdl,11.90
2023-09-05T04:52:00,sdl,11.40
2023-09-05T04:53:00,sdl,11.34
2023-09-05T04:54:00,sdl,11.31
2023-09-05T04:55:00,sdl,11.60
2023-09-05T04:56:00,sdl,11.72
2023-09-05T04:57:00,sdl,11.37
2023-09-05T04:58:00,sdl,11.25
2023-09-05T04:59:00,sdl,11.25
2023-09-05T05:00:00,sdl,11.46
2023-09-05T05:01:00,sdl,10.87
2023-09-05T05:02:00,sdl,11.30
2023-09-05T05:03:00,sdl,11.19
2023-09-05T05:04:00,sdl,11.42
2023-09-05T05:05:00,sdl,11.32
2023-09-05T05:06:00,sdl,10.34
2023-09-05T05:07:00,sdl,10.34
2023-09-05T05:08:00,sdl,10.57
2023-09-05T05:09:00,sdl,12.63
2023-09-05T05:10:00,sdl,12.55
2023-09-05T05:11:00,sdl,12.44
2023-09-05T05:12:00,sdl,13.07
2023-09-05T05:13:00,sdl,13.17
2023-09-05T05:14:00,sdl,13.22
2023-09-05T05:15:00,sdl,13.27
2023-09-05T05:16:00,sdl,13.30
2023-09-05T05:17:00,sdl,13.30
2023-09-05T05:18:00,sdl,13.33
2023-09-05T05:19:00,sdl,13.36
2023-09-05T05:20:00,sdl,14.04
2023-09-05T05:21:00,sdl,13.40
2023-09-05T05:22:00,sdl,13.40
2023-09-05T05:23:00,sdl,13.41
2023-09-05T05:24:00,sdl,13.73
2023-09-05T05:25:00,sdl,13.45
2023-09-05T05:26:00,sdl,13.39
2023-09-05T05:27:00,sdl,11.44
2023-09-05T05:28:00,sdl,10.56
2023-09-05T05:29:00,sdl,10.70
2023-09-05T05:30:00,sdl,10.20
2023-09-05T05:31:00,sdl,10.11
2023-09-05T05:32:00,sdl,10.09
2023-09-05T05:33:00,sdl,10.05
2023-09-05T05:34:00,sdl,10.30
2023-09-05T05:35:00,sdl,10.99
2023-09-05T05:36:00,sdl,11.03
2023-09-05T05:37:00,sdl,11.01
2023-09-05T05:38:00,sdl,11.14
2023-09-05T05:39:00,sdl,11.19
2023-09-05T05:40:00,sdl,11.19
2023-09-05T05:41:00,sdl,11.08
2023-09-05T05:42:00,sdl,11.07
2023-09-05T05:43:00,sdl,11.13
2023-09-05T05:44:00,sdl,11.00
2023-09-05T05:45:00,sdl,11.14
2023-09-05T05:46:00,sdl,11.04
2023-09-05T05:47:00,sdl,13.32
2023-09-05T05:48:00,sdl,12.40
2023-09-05T05:49:00,sdl,12.36
2023-09-05T05:50:00,sdl,12.25
2023-09-05T05:51:00,sdl,12.37
2023-09-05T05:52:00,sdl,12.28
2023-09-05T05:53:00,sdl,12.31
2023-09-05T05:54:00,sdl,12.84
2023-09-05T05:55:00,sdl,12.35
2023-09-05T05:56:00,sdl,13.17
2023-09-05T05:57:00,sdl,13.19
2023-09-05T05:58:00,sdl,11.12
2023-09-05T05:59:00,sdl,11.46
2023-09-05T06:00:00,sdl,11.35
2023-09-05T06:01:00,sdl,11.01
2023-09-05T06:02:00,sdl,11.10
2023-09-05T06:03:00,sdl,10.97
2023-09-05T06:04:00,sdl,11.40
2023-09-05T06:05:00,sdl,11.15
2023-09-05T06:06:00,sdl,11.12
2023-09-05T06:07:00,sdl,11.28
2023-09-05T06:08:00,sdl,11.32
2023-09-05T06:09:00,sdl,11.43
2023-09-05T06:10:00,sdl,10.22
2023-09-05T06:11:00,sdl,10.24
2023-09-05T06:12:00,sdl,9.95
2023-09-05T06:13:00,sdl,9.97
2023-09-05T06:14:00,sdl,9.81
2023-09-05T06:15:00,sdl,9.97
2023-09-05T06:16:00,sdl,10.05
2023-09-05T06:17:00,sdl,13.21
2023-09-05T06:18:00,sdl,13.05
2023-09-05T06:19:00,sdl,13.04
2023-09-05T06:20:00,sdl,12.95
2023-09-05T06:21:00,sdl,13.01
2023-09-05T06:22:00,sdl,13.84
2023-09-05T06:23:00,sdl,13.03
2023-09-05T06:24:00,sdl,13.27
2023-09-05T06:25:00,sdl,12.89
2023-09-05T06:26:00,sdl,12.96
2023-09-05T06:27:00,sdl,13.38
2023-09-05T06:28:00,sdl,13.42
2023-09-05T06:29:00,sdl,13.02
2023-09-05T06:30:00,sdl,13.66
2023-09-05T06:31:00,sdl,11.95
2023-09-05T06:32:00,sdl,11.87
2023-09-05T06:33:00,sdl,11.85
2023-09-05T06:34:00,sdl,11.84
2023-09-05T06:35:00,sdl,12.86
2023-09-05T06:36:00,sdl,12.69
2023-09-05T06:37:00,sdl,10.60
2023-09-05T06:38:00,sdl,10.58
2023-09-05T06:39:00,sdl,11.53
2023-09-05T06:40:00,sdl,11.54
2023-09-05T06:41:00,sdl,11.63
2023-09-05T06:42:00,sdl,11.62
2023-09-05T06:43:00,sdl,10.84
2023-09-05T06:44:00,sdl,10.84
2023-09-05T06:45:00,sdl,10.83
2023-09-05T06:46:00,sdl,10.72
2023-09-05T06:47:00,sdl,10.84
2023-09-05T06:48:00,sdl,10.75
2023-09-05T06:49:00,sdl,10.83
2023-09-05T06:50:00,sdl,10.79
2023-09-05T06:51:00,sdl,10.89
2023-09-05T06:52:00,sdl,9.89
2023-09-05T06:53:00,sdl,9.88
2023-09-05T06:54:00,sdl,10.03
2023-09-05T06:55:00,sdl,10.02
2023-09-05T06:56:00,sdl,10.56
2023-09-05T06:57:00,sdl,10.52
2023-09-05T06:58:00,sdl,9.92
2023-09-05T06:59:00,sdl,11.04
2023-09-05T07:00:00,sdl,11.12
2023-09-05T07:01:00,sdl,11.23
2023-09-05T07:02:00,sdl,10.85
2023-09-05T07:03:00,sdl,10.76
2023-09-05T07:04:00,sdl,10.75
2023-09-05T07:05:00,sdl,10.85
2023-09-05T07:06:00,sdl,11.55
2023-09-05T07:07:00,sdl,10.89
2023-09-05T07:08:00,sdl,10.84
2023-09-05T07:09:00,sdl,10.77
2023-09-05T07:10:00,sdl,12.20
2023-09-05T07:11:00,sdl,12.05
2023-09-05T07:12:00,sdl,12.17
2023-09-05T07:13:00,sdl,12.34
2023-09-05T07:14:00,sdl,12.32
2023-09-05T07:15:00,sdl,12.44
2023-09-05T07:16:00,sdl,13.00
2023-09-05T07:17:00,sdl,13.02
2023-09-05T07:18:00,sdl,13.42
2023-09-05T07:19:00,sdl,14.99
2023-09-05T07:20:00,sdl,14.19
2023-09-05T07:21:00,sdl,15.41
2023-09-05T07:22:00,sdl,17.70
2023-09-05T07:23:00,sdl,17.58
2023-09-05T07:24:00,sdl,17.63
2023-09-05T07:25:00,sdl,15.53
2023-09-05T07:26:00,sdl,16.60
2023-09-05T07:27:00,sdl,16.39
2023-09-05T07:28:00,sdl,17.15
2023-09-05T07:29:00,sdl,16.51
2023-09-05T07:30:00,sdl,17.69
2023-09-05T07:31:00,sdl,16.57
2023-09-05T07:32:00,sdl,19.12
2023-09-05T07:33:00,sdl,19.47
2023-09-05T07:34:00,sdl,20.30
2023-09-05T07:35:00,sdl,20.02
2023-09-05T07:36:00,sdl,20.25
2023-09-05T07:37:00,sdl,21.25
2023-09-05T07:38:00,sdl,25.22
2023-09-05T07:39:00,sdl,24.30
2023-09-05T07:40:00,sdl,24.44
2023-09-05T07:41:00,sdl,26.44
2023-09-05T07:42:00,sdl,26.21
2023-09-05T07:43:00,sdl,26.34
2023-09-05T07:44:00,sdl,26.36
2023-09-05T07:45:00,sdl,26.41
2023-09-05T07:46:00,sdl,26.34
2023-09-05T07:47:00,sdl,26.26
2023-09-05T07:48:00,sdl,26.32
2023-09-05T07:49:00,sdl,26.34
2023-09-05T07:50:00,sdl,26.35
2023-09-05T07:51:00,sdl,26.39
2023-09-05T07:52:00,sdl,26.53
2023-09-05T07:53:00,sdl,26.41
2023-09-05T07:54:00,sdl,26.50
2023-09-05T07:55:00,sdl,24.98
2023-09-05T07:56:00,sdl,25.05
2023-09-05T07:57:00,sdl,25.05
2023-09-05T07:58:00,sdl,25.02
2023-09-05T07:59:00,sdl,25.08
2023-09-05T08:00:00,sdl,25.12
2023-09-05T08:01:00,sdl,25.07
2023-09-05T08:02:00,sdl,25.11
2023-09-05T08:03:00,sdl,25.15
2023-09-05T08:04:00,sdl,25.20
2023-09-05T08:05:00,sdl,25.27
2023-09-05T08:06:00,sdl,25.14
2023-09-05T08:07:00,sdl,25.12
2023-09-05T08:08:00,sdl,25.13
2023-09-05T08:09:00,sdl,25.19
2023-09-05T08:10:00,sdl,25.14
2023-09-05T08:11:00,sdl,25.12
2023-09-05T08:12:00,sdl,25.08
2023-09-05T08:13:00,sdl,25.19
2023-09-05T08:14:00,sdl,25.18
2023-09-05T08:15:00,sdl,25.08
2023-09-05T08:16:00,sdl,25.11
2023-09-05T08:17:00,sdl,25.08
2023-09-05T08:18:00,sdl,25.06
2023-09-05T08:19:00,sdl,26.54
2023-09-05T08:20:00,sdl,26.68
2023-09-05T08:21:00,sdl,26.52
2023-09-05T08:22:00,sdl,26.43
2023-09-05T08:23:00,sdl,26.59
2023-09-05T08:24:00,sdl,26.62
2023-09-05T08:25:00,sdl,21.64
2023-09-05T08:26:00,sdl,22.08
2023-09-05T08:27:00,sdl,21.72
2023-09-05T08:28:00,sdl,22.24
2023-09-05T08:29:00,sdl,21.78
2023-09-05T08:30:00,sdl,21.92
2023-09-05T08:31:00,sdl,22.57
2023-09-05T08:32:00,sdl,22.34
2023-09-05T08:33:00,sdl,22.43
2023-09-05T08:34:00,sdl,22.54
2023-09-05T08:35:00,sdl,22.42
2023-09-05T08:36:00,sdl,22.30
2023-09-05T08:37:00,sdl,22.34
2023-09-05T08:38:00,sdl,22.75
2023-09-05T08:39:00,sdl,24.39
2023-09-05T08:40:00,sdl,24.25
2023-09-05T08:41:00,sdl,24.43
2023-09-05T08:42:00,sdl,24.33
2023-09-05T08:43:00,sdl,24.93
2023-09-05T08:44:00,sdl,25.05
2023-09-05T08:45:00,sdl,24.68
2023-09-05T08:46:00,sdl,24.58
2023-09-05T08:47:00,sdl,24.55
2023-09-05T08:48:00,sdl,24.66
2023-09-05T08:49:00,sdl,25.00
2023-09-05T08:50:00,sdl,25.14
2023-09-05T08:51:00,sdl,24.60
2023-09-05T08:52:00,sdl,24.83
2023-09-05T08:53:00,sdl,24.18
2023-09-05T08:54:00,sdl,25.57
2023-09-05T08:55:00,sdl,20.57
2023-09-05T08:56:00,sdl,17.83
2023-09-05T08:57:00,sdl,17.31
2023-09-05T08:58:00,sdl,17.16
2023-09-05T08:59:00,sdl,17.31
2023-09-05T09:00:00,sdl,17.26
2023-09-05T09:01:00,sdl,17.21
2023-09-05T09:02:00,sdl,17.25
2023-09-05T09:03:00,sdl,17.74
2023-09-05T09:04:00,sdl,17.82
2023-09-05T09:05:00,sdl,18.32
2023-09-05T09:06:00,sdl,15.57
2023-09-05T09:07:00,sdl,15.74
2023-09-05T09:08:00,sdl,15.70
2023-09-05T09:09:00,sdl,16.32
2023-09-05T09:10:00,sdl,15.69
2023-09-05T09:11:00,sdl,15.93
2023-09-05T09:12:00,sdl,15.80
2023-09-05T09:13:00,sdl,15.77
2023-09-05T09:14:00,sdl,15.80
2023-09-05T09:15:00,sdl,15.31
2023-09-05T09:16:00,sdl,15.22
2023-09-05T09:17:00,sdl,15.30
2023-09-05T09:18:00,sdl,15.24
2023-09-05T09:19:00,sdl,15.24
2023-09-05T09:20:00,sdl,15.28
2023-09-05T09:21:00,sdl,15.30
2023-09-05T09:22:00,sdl,15.57
2023-09-05T09:23:00,sdl,17.48
2023-09-05T09:24:00,sdl,17.50
2023-09-05T09:25:00,sdl,17.38
2023-09-05T09:26:00,sdl,17.31
2023-09-05T09:27:00,sdl,17.33
2023-09-05T09:28:00,sdl,17.05
2023-09-05T09:29:00,sdl,17.60
2023-09-05T09:30:00,sdl,17.52
2023-09-05T09:31:00,sdl,17.27
2023-09-05T09:32:00,sdl,17.26
2023-09-05T09:33:00,sdl,17.19
2023-09-05T09:34:00,sdl,17.26
2023-09-05T09:35:00,sdl,16.90
2023-09-05T09:36:00,sdl,16.91
2023-09-05T09:37:00,sdl,16.95
2023-09-05T09:38:00,sdl,17.25
2023-09-05T09:39:00,sdl,16.77
2023-09-05T09:40:00,sdl,16.87
2023-09-05T09:41:00,sdl,16.98
2023-09-05T09:42:00,sdl,17.04
2023-09-05T09:43:00,sdl,16.99
2023-09-05T09:44:00,sdl,14.78
2023-09-05T09:45:00,sdl,15.34
2023-09-05T09:46:00,sdl,14.74
2023-09-05T09:47:00,sdl,15.01
2023-09-05T09:48:00,sdl,15.85
2023-09-05T09:49:00,sdl,14.95
2023-09-05T09:50:00,sdl,15.10
2023-09-05T09:51:00,sdl,15.91
2023-09-05T09:52:00,sdl,15.24
2023-09-05T09:53:00,sdl,15.09
2023-09-05T09:54:00,sdl,15.12
2023-09-05T09:55:00,sdl,15.12
2023-09-05T09:56:00,sdl,15.12
2023-09-05T09:57:00,sdl,15.79
2023-09-05T09:58:00,sdl,16.65
2023-09-05T09:59:00,sdl,15.33
2023-09-05T10:00:00,sdl,17.14
2023-09-05T10:01:00,sdl,17.06
2023-09-05T10:02:00,sdl,15.25
2023-09-05T10:03:00,sdl,15.26
2023-09-05T10:04:00,sdl,15.14
2023-09-05T10:05:00,sdl,15.12
2023-09-05T10:06:00,sdl,15.31
2023-09-05T10:07:00,sdl,16.39
2023-09-05T10:08:00,sdl,14.90
2023-09-05T10:09:00,sdl,16.94
2023-09-05T10:10:00,sdl,17.68
2023-09-05T10:11:00,sdl,17.05
2023-09-05T10:12:00,sdl,16.98
2023-09-05T10:13:00,sdl,17.21
2023-09-05T10:14:00,sdl,17.11
2023-09-05T10:15:00,sdl,17.57
2023-09-05T10:16:00,sdl,17.12
2023-09-05T10:17:00,sdl,17.17
2023-09-05T10:18:00,sdl,17.11
2023-09-05T10:19:00,sdl,18.31
2023-09-05T10:20:00,sdl,18.04
2023-09-05T10:21:00,sdl,17.51
2023-09-05T10:22:00,sdl,17.57
2023-09-05T10:23:00,sdl,17.58
2023-09-05T10:24:00,sdl,18.14
2023-09-05T10:25:00,sdl,17.50
2023-09-05T10:26:00,sdl,17.44
2023-09-05T10:27:00,sdl,17.20
2023-09-05T10:28:00,sdl,17.03
2023-09-05T10:29:00,sdl,17.01
2023-09-05T10:30:00,sdl,17.30
2023-09-05T10:31:00,sdl,17.18
2023-09-05T10:32:00,sdl,17.65
2023-09-05T10:33:00,sdl,17.55
2023-09-05T10:34:00,sdl,15.07
2023-09-05T10:35:00,sdl,15.22
2023-09-05T10:36:00,sdl,15.05
2023-09-05T10:37:00,sdl,15.14
2023-09-05T10:38:00,sdl,15.95
2023-09-05T10:39:00,sdl,16.18
2023-09-05T10:40:00,sdl,15.57
2023-09-05T10:41:00,sdl,15.48
2023-09-05T10:42:00,sdl,15.51
2023-09-05T10:43:00,sdl,16.14
2023-09-05T10:44:00,sdl,15.53
2023-09-05T10:45:00,sdl,15.58
2023-09-05T10:46:00,sdl,15.42
2023-09-05T10:47:00,sdl,15.60
2023-09-05T10:48:00,sdl,17.48
2023-09-05T10:49:00,sdl,17.48
2023-09-05T10:50:00,sdl,17.74
2023-09-05T10:51:00,sdl,17.79
2023-09-05T10:52:00,sdl,17.67
2023-09-05T10:53:00,sdl,17.77
2023-09-05T10:54:00,sdl,17.50
2023-09-05T10:55:00,sdl,17.57
2023-09-05T10:56:00,sdl,17.41
2023-09-05T10:57:00,sdl,17.58
2023-09-05T10:58:00,sdl,17.54
2023-09-05T10:59:00,sdl,18.09
2023-09-05T11:00:00,sdl,17.94
2023-09-05T11:01:00,sdl,18.19
2023-09-05T11:02:00,sdl,17.93
2023-09-05T11:03:00,sdl,18.33
2023-09-05T11:04:00,sdl,18.54
2023-09-05T11:05:00,sdl,17.21
2023-09-05T11:06:00,sdl,15.61
2023-09-05T11:07:00,sdl,15.47
2023-09-05T11:08:00,sdl,15.26
2023-09-05T11:09:00,sdl,15.40
2023-09-05T11:10:00,sdl,16.22
2023-09-05T11:11:00,sdl,15.59
2023-09-05T11:12:00,sdl,15.63
2023-09-05T11:13:00,sdl,15.79
2023-09-05T11:14:00,sdl,15.29
2023-09-05T11:15:00,sdl,15.42
2023-09-05T11:16:00,sdl,15.54
2023-09-05T11:17:00,sdl,16.31
2023-09-05T11:18:00,sdl,15.80
2023-09-05T11:19:00,sdl,15.27
2023-09-05T11:20:00,sdl,15.49
2023-09-05T11:21:00,sdl,16.58
2023-09-05T11:22:00,sdl,15.48
2023-09-05T11:23:00,sdl,15.43
2023-09-05T11:24:00,sdl,16.62
2023-09-05T11:25:00,sdl,15.51
2023-09-05T11:26:00,sdl,15.66
2023-09-05T11:27:00,sdl,15.52
2023-09-05T11:28:00,sdl,15.68
2023-09-05T11:29:00,sdl,15.36
2023-09-05T11:30:00,sdl,15.41
2023-09-05T11:31:00,sdl,17.45
2023-09-05T11:32:00,sdl,17.88
2023-09-05T11:33:00,sdl,17.89
2023-09-05T11:34:00,sdl,17.87
2023-09-05T11:35:00,sdl,18.46
2023-09-05T11:36:00,sdl,18.72
2023-09-05T11:37:00,sdl,17.82
2023-09-05T11:38:00,sdl,18.15
2023-09-05T11:39:00,sdl,18.03
2023-09-05T11:40:00,sdl,18.89
2023-09-05T11:41:00,sdl,18.02
2023-09-05T11:42:00,sdl,18.12
2023-09-05T11:43:00,sdl,17.55
2023-09-05T11:44:00,sdl,17.56
2023-09-05T11:45:00,sdl,17.51
2023-09-05T11:46:00,sdl,17.49
2023-09-05T11:47:00,sdl,17.36
2023-09-05T11:48:00,sdl,17.37
2023-09-05T11:49:00,sdl,17.29
2023-09-05T11:50:00,sdl,17.18
2023-09-05T11:51:00,sdl,15.09
2023-09-05T11:52:00,sdl,15.31
2023-09-05T11:53:00,sdl,15.35
2023-09-05T11:54:00,sdl,16.06
2023-09-05T11:55:00,sdl,15.50
2023-09-05T11:56:00,sdl,15.61
2023-09-05T11:57:00,sdl,15.28
2023-09-05T11:58:00,sdl,15.76
2023-09-05T11:59:00,sdl,15.26
2023-09-05T12:00:00,sdl,15.24
2023-09-05T12:01:00,sdl,15.33
2023-09-05T12:02:00,sdl,16.20
2023-09-05T12:03:00,sdl,16.12
2023-09-05T12:04:00,sdl,15.28
2023-09-05T12:05:00,sdl,15.68
2023-09-05T12:06:00,sdl,15.72
2023-09-05T12:07:00,sdl,15.72
2023-09-05T12:08:00,sdl,15.67
2023-09-05T12:09:00,sdl,15.90
2023-09-05T12:10:00,sdl,17.99
2023-09-05T12:11:00,sdl,17.70
2023-09-05T12:12:00,sdl,17.16
2023-09-05T12:13:00,sdl,16.96
2023-09-05T12:14:00,sdl,16.94
2023-09-05T12:15:00,sdl,17.49
2023-09-05T12:16:00,sdl,17.83
2023-09-05T12:17:00,sdl,17.88
2023-09-05T12:18:00,sdl,17.59
2023-09-05T12:19:00,sdl,18.83
2023-09-05T12:20:00,sdl,18.71
2023-09-05T12:21:00,sdl,18.82
2023-09-05T12:22:00,sdl,19.22
2023-09-05T12:23:00,sdl,17.74
2023-09-05T12:24:00,sdl,17.35
2023-09-05T12:25:00,sdl,17.37
2023-09-05T12:26:00,sdl,15.16
2023-09-05T12:27:00,sdl,15.60
2023-09-05T12:28:00,sdl,16.21
2023-09-05T12:29:00,sdl,15.18
2023-09-05T12:30:00,sdl,15.19
2023-09-05T12:31:00,sdl,14.75
2023-09-05T12:32:00,sdl,15.09
2023-09-05T12:33:00,sdl,15.37
2023-09-05T12:34:00,sdl,15.76
2023-09-05T12:35:00,sdl,15.79
2023-09-05T12:36:00,sdl,15.53
2023-09-05T12:37:00,sdl,15.50
2023-09-05T12:38:00,sdl,16.61
2023-09-05T12:39:00,sdl,15.70
2023-09-05T12:40:00,sdl,17.96
2023-09-05T12:41:00,sdl,17.77
2023-09-05T12:42:00,sdl,17.79
2023-09-05T12:43:00,sdl,18.17
2023-09-05T12:44:00,sdl,17.71
2023-09-05T12:45:00,sdl,17.69
2023-09-05T12:46:00,sdl,17.51
2023-09-05T12:47:00,sdl,17.47
2023-09-05T12:48:00,sdl,16.56
2023-09-05T12:49:00,sdl,16.62
2023-09-05T12:50:00,sdl,16.56
2023-09-05T12:51:00,sdl,16.79
2023-09-05T12:52:00,sdl,17.52
2023-09-05T12:53:00,sdl,17.53
2023-09-05T12:54:00,sdl,17.60
2023-09-05T12:55:00,sdl,18.09
2023-09-05T12:56:00,sdl,18.27
2023-09-05T12:57:00,sdl,18.34
2023-09-05T12:58:00,sdl,19.97
2023-09-05T12:59:00,sdl,20.12
2023-09-05T13:00:00,sdl,21.02
2023-09-05T13:01:00,sdl,21.12
2023-09-05T13:02:00,sdl,21.39
2023-09-05T13:03:00,sdl,21.58
2023-09-05T13:04:00,sdl,21.54
2023-09-05T13:05:00,sdl,21.41
2023-09-05T13:06:00,sdl,21.53
2023-09-05T13:07:00,sdl,22.09
2023-09-05T13:08:00,sdl,21.83
2023-09-05T13:09:00,sdl,21.72
2023-09-05T13:10:00,sdl,22.20
2023-09-05T13:11:00,sdl,22.30
2023-09-05T13:12:00,sdl,22.23
2023-09-05T13:13:00,sdl,21.98
2023-09-05T13:14:00,sdl,25.64
2023-09-05T13:15:00,sdl,25.89
2023-09-05T13:16:00,sdl,26.13
2023-09-05T13:17:00,sdl,26.30
2023-09-05T13:18:00,sdl,26.11
2023-09-05T13:19:00,sdl,26.32
2023-09-05T13:20:00,sdl,26.27
2023-09-05T13:21:00,sdl,26.23
2023-09-05T13:22:00,sdl,26.42